Hourly Data Report for September 02, 2017

All times are specified in Local Standard Time (LST). Add 1 hour to adjust for Daylight Saving Time where and when it is observed.

EDMUNDSTON
NEW BRUNSWICK

47°25'00.000" N
68°19'28.040" W
154.20 m
8101303
71590
ERM

Download Data

Hourly Data (September 2017)
Hourly Data Report for September 2, 2017
Temp Definition
°C
Dew Point Temp Definition
°C
Rel Hum Definition
%
Wind Dir Definition
10's deg

Wind Spd Definition
km/h
Visibility Definition
km
Stn Press Definition
kPa
Hmdx Definition


Wind Chill Definition


Weather Definition


TIME
00:00 8.0 5.7 85 31 8   99.65     LegendNANA
01:00 7.9 5.5 85 31 3   99.70     LegendNANA
02:00 8.2 5.4 83 33 8   99.73     LegendNANA
03:00 8.1 5.5 84 32 6   99.74     LegendNANA
04:00 8.1 5.6 84 31 7   99.81     LegendNANA
05:00 8.2 5.5 84 33 5   99.86     LegendNANA
06:00 8.0 5.5 85 31 5   99.94     LegendNANA
07:00 8.1 5.3 83 31 5   100.02     LegendNANA
08:00 9.3 5.6 77 32 13   100.05     LegendNANA
09:00 10.1 5.4 73 32 14   100.09     LegendNANA
10:00 13.3 7.2 66 33 12   100.14     LegendNANA
11:00 14.2 6.5 60 34 15   100.16     LegendNANA
12:00 15.4 7.1 58 33 12   100.16     LegendNANA
13:00 16.2 6.8 54 30 11   100.13     LegendNANA
14:00 17.3 6.2 48 32 11   100.13     LegendNANA
15:00 18.2 5.8 44 32 10   100.16     LegendNANA
16:00 19.1 5.7 42 32 7   100.17     LegendNANA
17:00 18.7 6.2 44 29 9   100.20     LegendNANA
18:00 17.3 5.9 47 31 7   100.22     LegendNANA
19:00 12.2 7.7 74 34 6   100.25     LegendNANA
20:00 8.2 6.3 88 4 2   100.31     LegendNANA
21:00 7.0 5.6 91 0 1   100.38     LegendNANA
22:00 5.5 4.4 93 31 3   100.41     LegendNANA
23:00 4.5 3.6 93   0   100.41     LegendNANA

Notes on Data Quality.

Legend

  • E = Estimated
  • M = Missing
  • NA = Not Available
  • ‡ = Partner data that is not subject to review by the National Climate Archives
Date modified: